Weather History for Buffalo, SD

Change the Weather History Date:

Tuesday, October 22, 2013

  Actual Average Record
Temperature  
Mean Temperature 44 °F 43 °F  
Max Temperature 50 °F 55 °F 75 °F (2003)
Min Temperature 38 °F 32 °F 19 °F (2002)
Degree Days  
Heating Degree Days 21 22  
Month to date heating degree days 456 397  
Since 1 July heating degree days 585 688  
Cooling Degree Days 0 0  
Month to date cooling degree days 0 0  
Year to date cooling degree days 587 512  
Moisture  
Dew Point 37 °F    
Average Humidity 76    
Maximum Humidity 100    
Minimum Humidity 52    
Precipitation  
Precipitation 0.00 in 0.04 in 0.49 in (2004)
Month to date precipitation 0.50 0.38  
Year to date precipitation 12.15 13.60  
Sea Level Pressure  
Sea Level Pressure 30.02 in    
Wind  
Wind Speed 12 mph (WNW)    
Max Wind Speed 29 mph    
Max Gust Speed 36 mph    
T = Trace of Precipitation, MM = Missing Value Source: NWS Daily Summary

Daily Weather History Graph

Daily Weather History Graph

Search for Another Location

Airport:

Trip Planner

Search our weather history database for the weather conditions in past years. The results will help you decide how hot, cold, wet, or windy it might be!

Date:

Astronomy

Oct. 22, 2013 Rise Set
Actual Time 7:20 AM MDT 5:56 PM MDT
Civil Twilight 6:50 AM MDT 6:26 PM MDT
Nautical Twilight 6:15 AM MDT 7:00 PM MDT
Astronomical Twilight 5:41 AM MDT 7:35 PM MDT
Moon 8:30 PM MDT (10/22) 10:58 AM MDT (10/22)
Length of Visible Light 11h 36m
Length of Day
10h 35m
Waning Gibbous, 86% of the Moon is Illuminated
Oct 22
Waning Gibbous
Oct 26
Last Quarter
Nov 3
New
Nov 9
First Quarter
Nov 17
Full

Hourly Weather History & Observations

Time (MDT) Temp. Windchill Dew Point Humidity Pressure Visibility Wind Dir Wind Speed Gust Speed Precip Events Conditions
12:56 AM 45.0 °F 36.9 °F 41.0 °F 86% 29.95 in - WNW 20.7 mph 27.6 mph N/A   Unknown
1:56 AM 45.0 °F 36.2 °F 41.0 °F 86% 29.94 in - WNW 24.2 mph - N/A   Unknown
2:56 AM 45.0 °F 36.4 °F 41.0 °F 86% 29.95 in - NW 23.0 mph - N/A   Unknown
3:56 AM 45.0 °F 37.1 °F 41.0 °F 86% 29.96 in - NW 19.6 mph - N/A   Unknown
4:56 AM 43.0 °F 35.7 °F 41.0 °F 93% 29.98 in - NNW 15.0 mph - N/A   Unknown
5:56 AM 39.9 °F 33.4 °F 39.0 °F 97% 30.02 in - NW 10.4 mph - N/A   Unknown
6:56 AM 39.9 °F 32.5 °F 37.0 °F 89% 30.03 in - WNW 12.7 mph - N/A   Unknown
7:56 AM 37.9 °F 32.7 °F 37.0 °F 97% 30.05 in - NW 6.9 mph - N/A   Unknown
8:56 AM 41.0 °F 35.2 °F 37.9 °F 89% 30.05 in - NW 9.2 mph - N/A   Unknown
9:56 AM 44.1 °F 38.1 °F 39.9 °F 85% 30.06 in - WNW 11.5 mph - N/A   Unknown
10:56 AM 46.0 °F 40.2 °F 37.9 °F 73% 30.05 in - WNW 12.7 mph - N/A   Unknown
11:56 AM 48.9 °F - 35.1 °F 59% 30.05 in - NW 13.8 mph 21.9 mph N/A   Unknown
12:56 PM 50.0 °F - 34.0 °F 54% 30.04 in - NW 15.0 mph - N/A   Unknown
1:56 PM 48.9 °F - 33.1 °F 54% 30.04 in - WNW 17.3 mph - N/A   Unknown
2:56 PM 48.0 °F - 35.1 °F 61% 30.05 in - WNW 18.4 mph - N/A   Unknown
3:56 PM 48.9 °F - 34.0 °F 56% 30.04 in - West 13.8 mph - N/A   Unknown
4:56 PM 48.0 °F - 33.1 °F 56% 30.05 in - WNW 9.2 mph - N/A   Unknown
5:56 PM 46.9 °F - 33.1 °F 59% 30.05 in - NNW 8.1 mph - N/A   Unknown
6:56 PM 45.0 °F 41.8 °F 34.0 °F 65% 30.04 in - NNE 5.8 mph - N/A   Unknown
7:56 PM 45.0 °F 42.6 °F 34.0 °F 65% 30.04 in - NNW 4.6 mph - N/A   Unknown
8:56 PM 43.0 °F 39.5 °F 35.1 °F 74% 30.03 in - South 5.8 mph - N/A   Unknown
9:56 PM 41.0 °F 38.0 °F 35.1 °F 79% 30.01 in - SW 4.6 mph - N/A   Unknown
10:56 PM 41.0 °F 39.0 °F 35.1 °F 79% 29.99 in - WSW 3.5 mph - N/A   Unknown
11:56 PM 41.0 °F 35.2 °F 36.0 °F 82% 29.96 in - SW 9.2 mph - N/A   Unknown